Location: Newark
(42.7133°N, 87.7910°W)
Time: 02:51:59
(UTC+00:00)

Tiros 1 - Pass Details

Date: 28 September 2019
Orbit: 630 x 664 km, 48.4° (Epoch: 21 October)

Event Time Altitude Azimuth Distance (km) Brightness Sun altitude
Rises 17:20:37 0° 265° (W) 2,982 10.6 44.9°
Reaches altitude 10° 17:23:03 10° 270° (W) 2,067 9.8 45.0°
Maximum altitude 17:27:41 50° 346° (NNW) 835 7.9 45.1°
Drops below altitude 10° 17:32:17 10° 63° (ENE) 2,050 9.7 45.1°
Sets 17:34:41 0° 68° (ENE) 2,955 10.4 45.1°
